{"data":{"norad_id":64806,"epoch":"2026-05-25T03:27:13.944960Z","epoch_age_seconds":73048,"freshness":"FRESH","line1":"1 64806U 25150S   26145.14391140  .00001089  00000+0  99042-4 0  9993","line2":"2 64806  70.0001 301.4937 0002598 275.1947  84.8915 14.98338747 47976","mean_motion":14.98338747,"eccentricity":0.0002598,"inclination_deg":70.0001,"raan_deg":301.4937,"arg_perigee_deg":275.1947,"mean_anomaly_deg":84.8915,"bstar":9.9042e-5,"rev_number":4797,"period_min":96.106438072378,"perigee_km":570.22318861438,"apogee_km":573.83449478572,"semimajor_km":6950.1658417,"source":"CELESTRAK","updated_at":"2026-05-25T13:38:20.567636Z"}}